When you browse on this site, cookies collect data to enhance your experience and personalize the content and advertising you see.
Visit our Privacy Policy to learn more. By continuing to use the site, you agree to this use of cookies and data.
  • In Netherlands
  • List of Countries
  • For 7 days
  • Water Temperature
  • Satellite Maps
  • Weather Map
  • Weather Widgets
  • user-avatar
    Login

    Hourly Weather Newcastle

    Today, 18 January, Friday

    Time Temperature Precipitation Wind Pressure Humidity
    00:00 +23°C° 0 mm 4 mps 757 mmHg 86%
    01:00 +22°C° 0 mm 4 mps 757 mmHg 90%
    02:00 +22°C° 0 mm 3 mps 757 mmHg 93%
    03:00 +21°C° 0 mm 3 mps 757 mmHg 95%
    04:00 +20°C° 0 mm 2 mps 758 mmHg 99%
    05:00 +22°C° 0 mm 1 mps 759 mmHg 94%
    06:00 +23°C° 0 mm 1 mps 759 mmHg 88%
    07:00 +25°C° 0 mm 1 mps 759 mmHg 83%
    08:00 +28°C° 0 mm 1 mps 759 mmHg 70%
    09:00 +31°C° 0 mm 2 mps 759 mmHg 57%
    10:00 +34°C° 0 mm 2 mps 759 mmHg 47%
    11:00 +37°C° 0 mm 2 mps 758 mmHg 39%
    12:00 +40°C° 0 mm 2 mps 757 mmHg 31%
    13:00 +44°C° 0 mm 3 mps 757 mmHg 23%
    14:00 +44°C° 0 mm 4 mps 756 mmHg 22%
    15:00 +44°C° 0 mm 4 mps 756 mmHg 21%
    16:00 +42°C° 0 mm 6 mps 755 mmHg 25%
    17:00 +40°C° 0 mm 6 mps 756 mmHg 32%
    18:00 +36°C° 0 mm 5 mps 756 mmHg 39%
    19:00 +34°C° 0 mm 5 mps 756 mmHg 46%
    20:00 +33°C° 0 mm 4 mps 756 mmHg 49%
    21:00 +32°C° 0 mm 4 mps 756 mmHg 51%
    22:00 +30°C° 0 mm 4 mps 757 mmHg 54%
    23:00 +29°C° 0 mm 4 mps 757 mmHg 53%

    Tomorrow, 19 January, Saturday

    Time Temperature Precipitation Wind Pressure Humidity
    00:00 +29°C° 0 mm 3 mps 757 mmHg 52%
    01:00 +29°C° 0 mm 3 mps 757 mmHg 50%
    02:00 +29°C° 0 mm 3 mps 757 mmHg 46%
    03:00 +30°C° 0 mm 4 mps 757 mmHg 43%
    04:00 +30°C° 0 mm 4 mps 758 mmHg 39%
    05:00 +30°C° 0 mm 4 mps 758 mmHg 47%
    06:00 +29°C° 0 mm 4 mps 759 mmHg 55%
    07:00 +29°C° 0 mm 4 mps 760 mmHg 63%
    08:00 +30°C° 0 mm 4 mps 760 mmHg 60%
    09:00 +32°C° 0 mm 4 mps 761 mmHg 57%
    10:00 +33°C° 0 mm 4 mps 761 mmHg 53%
    11:00 +30°C° 0 mm 5 mps 761 mmHg 61%
    12:00 +29°C° 0 mm 5 mps 761 mmHg 69%
    13:00 +27°C° 0 mm 6 mps 761 mmHg 77%
    14:00 +27°C° 0.2 mm 6 mps 761 mmHg 78%
    15:00 +26°C° 0.2 mm 5 mps 762 mmHg 78%
    16:00 +26°C° 0.2 mm 5 mps 762 mmHg 79%
    17:00 +25°C° 0.1 mm 5 mps 762 mmHg 81%
    18:00 +25°C° 0.1 mm 4 mps 763 mmHg 83%
    19:00 +23°C° 0.1 mm 4 mps 763 mmHg 85%
    20:00 +24°C° 0.1 mm 3 mps 764 mmHg 86%
    21:00 +24°C° 0.1 mm 3 mps 765 mmHg 87%
    22:00 +24°C° 0.1 mm 3 mps 765 mmHg 88%
    23:00 +24°C° 0 mm 2 mps 765 mmHg 88%

    Day after tomorrow, 20 January, Sunday

    Time Temperature Precipitation Wind Pressure Humidity
    00:00 +23°C° 0 mm 2 mps 765 mmHg 88%
    01:00 +23°C° 0 mm 2 mps 764 mmHg 88%
    02:00 +23°C° 0 mm 2 mps 764 mmHg 89%
    03:00 +23°C° 0 mm 2 mps 764 mmHg 89%
    04:00 +23°C° 0 mm 2 mps 764 mmHg 89%
    05:00 +24°C° 0 mm 2 mps 764 mmHg 85%
    06:00 +24°C° 0 mm 2 mps 764 mmHg 80%
    07:00 +25°C° 0 mm 2 mps 764 mmHg 76%
    08:00 +26°C° 0 mm 2 mps 764 mmHg 70%
    09:00 +27°C° 0 mm 2 mps 764 mmHg 65%
    10:00 +29°C° 0 mm 2 mps 764 mmHg 60%
    11:00 +30°C° 0 mm 3 mps 764 mmHg 57%
    12:00 +31°C° 0 mm 3 mps 763 mmHg 53%
    13:00 +33°C° 0 mm 4 mps 763 mmHg 50%
    14:00 +33°C° 0 mm 4 mps 762 mmHg 52%
    15:00 +32°C° 0 mm 4 mps 762 mmHg 55%
    16:00 +32°C° 0 mm 4 mps 761 mmHg 57%
    17:00 +29°C° 0 mm 4 mps 762 mmHg 64%
    18:00 +27°C° 0 mm 4 mps 762 mmHg 71%
    19:00 +26°C° 0 mm 4 mps 762 mmHg 78%
    20:00 +25°C° 0.4 mm 3 mps 763 mmHg 83%
    21:00 +24°C° 0.4 mm 2 mps 763 mmHg 88%
    22:00 +24°C° 0.4 mm 2 mps 764 mmHg 93%
    23:00 +24°C° 0 mm 1 mps 764 mmHg 94%

    21 January, Monday

    Time Temperature Precipitation Wind Pressure Humidity
    00:00 +24°C° 0 mm 1 mps 763 mmHg 95%
    01:00 +24°C° 0 mm 1 mps 763 mmHg 96%
    02:00 +24°C° 0 mm 2 mps 763 mmHg 96%
    03:00 +24°C° 0 mm 2 mps 763 mmHg 96%
    04:00 +24°C° 0 mm 2 mps 762 mmHg 96%
    05:00 +24°C° 0.1 mm 2 mps 763 mmHg 96%
    06:00 +25°C° 0.1 mm 2 mps 763 mmHg 95%
    07:00 +25°C° 0.1 mm 2 mps 763 mmHg 95%
    08:00 +25°C° 0.1 mm 2 mps 763 mmHg 94%
    09:00 +25°C° 0.1 mm 2 mps 764 mmHg 94%
    10:00 +26°C° 0.1 mm 2 mps 764 mmHg 93%
    11:00 +27°C° 0.1 mm 3 mps 763 mmHg 89%
    12:00 +28°C° 0.1 mm 3 mps 763 mmHg 84%
    13:00 +29°C° 0.1 mm 3 mps 762 mmHg 79%
    14:00 +29°C° 0 mm 3 mps 762 mmHg 76%
    15:00 +30°C° 0 mm 4 mps 761 mmHg 72%
    16:00 +30°C° 0 mm 4 mps 761 mmHg 69%
    17:00 +29°C° 0 mm 4 mps 761 mmHg 73%
    18:00 +28°C° 0 mm 4 mps 761 mmHg 78%
    19:00 +27°C° 0 mm 4 mps 762 mmHg 82%
    20:00 +27°C° 0 mm 4 mps 762 mmHg 85%
    21:00 +26°C° 0 mm 3 mps 762 mmHg 89%
    22:00 +25°C° 0 mm 3 mps 763 mmHg 92%
    23:00 +25°C° 0 mm 3 mps 762 mmHg 92%

    22 January, Tuesday

    Time Temperature Precipitation Wind Pressure Humidity
    00:00 +25°C° 0 mm 3 mps 762 mmHg 93%
    01:00 +24°C° 0 mm 3 mps 761 mmHg 93%
    02:00 +24°C° 0 mm 3 mps 761 mmHg 95%
    03:00 +22°C° 0 mm 3 mps 761 mmHg 96%
    04:00 +23°C° 0 mm 2 mps 761 mmHg 98%
    05:00 +24°C° 0 mm 2 mps 761 mmHg 93%
    06:00 +25°C° 0 mm 2 mps 761 mmHg 88%
    07:00 +26°C° 0 mm 3 mps 761 mmHg 83%
    08:00 +30°C° 0 mm 2 mps 761 mmHg 70%
    09:00 +34°C° 0 mm 2 mps 761 mmHg 57%
    10:00 +37°C° 0 mm 1 mps 761 mmHg 45%
    11:00 +39°C° 0 mm 2 mps 760 mmHg 40%
    12:00 +40°C° 0 mm 3 mps 760 mmHg 36%
    13:00 +42°C° 0 mm 3 mps 759 mmHg 32%
    14:00 +41°C° 0 mm 4 mps 758 mmHg 37%
    15:00 +39°C° 0 mm 5 mps 758 mmHg 42%
    16:00 +36°C° 0 mm 5 mps 758 mmHg 46%
    17:00 +34°C° 0.1 mm 5 mps 758 mmHg 54%
    18:00 +32°C° 0.1 mm 5 mps 758 mmHg 62%
    19:00 +29°C° 0.1 mm 4 mps 758 mmHg 69%
    20:00 +28°C° 0.2 mm 4 mps 758 mmHg 74%
    21:00 +27°C° 0.2 mm 3 mps 758 mmHg 78%
    22:00 +26°C° 0.2 mm 3 mps 758 mmHg 83%
    23:00 +26°C° 0 mm 2 mps 757 mmHg 83%

    23 January, Wednesday

    Time Temperature Precipitation Wind Pressure Humidity
    00:00 +26°C° 0 mm 2 mps 757 mmHg 83%
    01:00 +26°C° 0 mm 2 mps 757 mmHg 83%
    02:00 +26°C° 0.9 mm 2 mps 756 mmHg 87%
    03:00 +25°C° 0.9 mm 2 mps 756 mmHg 91%
    04:00 +25°C° 0.9 mm 1 mps 756 mmHg 96%
    05:00 +26°C° 0 mm 2 mps 757 mmHg 93%
    06:00 +26°C° 0 mm 2 mps 757 mmHg 91%
    07:00 +27°C° 0 mm 2 mps 757 mmHg 88%
    08:00 +29°C° 0 mm 2 mps 757 mmHg 76%
    09:00 +33°C° 0 mm 3 mps 757 mmHg 63%
    10:00 +35°C° 0 mm 3 mps 757 mmHg 50%
    11:00 +34°C° 0.4 mm 5 mps 757 mmHg 56%
    12:00 +33°C° 0.4 mm 6 mps 757 mmHg 61%
    13:00 +32°C° 0.4 mm 8 mps 756 mmHg 67%
    14:00 +29°C° 1.9 mm 7 mps 757 mmHg 74%
    15:00 +26°C° 1.9 mm 7 mps 757 mmHg 81%
    16:00 +23°C° 1.9 mm 6 mps 758 mmHg 88%
    17:00 +23°C° 0.5 mm 6 mps 758 mmHg 89%
    18:00 +22°C° 0.5 mm 5 mps 759 mmHg 90%
    19:00 +22°C° 0.5 mm 5 mps 760 mmHg 91%
    20:00 +22°C° 0 mm 5 mps 761 mmHg 90%
    21:00 +22°C° 0 mm 5 mps 761 mmHg 88%
    22:00 +22°C° 0 mm 6 mps 762 mmHg 87%
    23:00 +21°C° 0.2 mm 6 mps 762 mmHg 87%
    Show more